Weather History for Chicopee, MA

Change the Weather History Date:

Thursday, May 23, 2013

  Actual Average Record
Temperature  
Mean Temperature 68 °F -  
Max Temperature 73 °F 67 °F 80 °F (2004)
Min Temperature 64 °F 47 °F 35 °F (2008)
Cooling Degree Days 3    
Growing Degree Days 18 (Base 50)    
Moisture  
Dew Point 67 °F    
Average Humidity 98    
Maximum Humidity 100    
Minimum Humidity 87    
Precipitation  
Precipitation 1.50 in - - ()
Sea Level Pressure  
Sea Level Pressure 29.84 in    
Wind  
Wind Speed 11 mph (South)    
Max Wind Speed 16 mph    
Max Gust Speed 20 mph    
Visibility 5 miles    
Events Rain , Thunderstorm    
Averages and records for this station are not official NWS values.
T = Trace of Precipitation, MM = Missing Value Source: NWS Daily Summary

Daily Weather History Graph

Daily Weather History Graph

Search for Another Location

Airport:

Trip Planner

Search our weather history database for the weather conditions in past years. The results will help you decide how hot, cold, wet, or windy it might be!

Date:

Astronomy

May. 23, 2013 Rise Set
Actual Time 5:21 AM EDT 8:12 PM EDT
Civil Twilight 4:48 AM EDT 8:45 PM EDT
Nautical Twilight 4:07 AM EDT 9:27 PM EDT
Astronomical Twilight 3:19 AM EDT 10:15 PM EDT
Moon 6:40 PM EDT (5/23) 4:06 AM EDT (5/23)
Length of Visible Light 15h 56m
Length of Day
14h 50m
Waxing Gibbous, 97% of the Moon is Illuminated
May 23
Waxing Gibbous
May 25
Full
May 31
Last Quarter
Jun 8
New
Jun 16
First Quarter

Hourly Weather History & Observations

Time (EDT) Temp. Dew Point Humidity Pressure Visibility Wind Dir Wind Speed Gust Speed Precip Events Conditions
12:18 AM 69.8 °F 68.0 °F 94% 29.87 in 7.0 mi South 10.4 mph - N/A   Overcast
12:58 AM 68.7 °F 68.2 °F 98% 29.89 in 8.0 mi South 10.4 mph - N/A   Overcast
1:58 AM 67.8 °F 67.3 °F 98% 29.88 in 8.0 mi South 10.4 mph - N/A   Overcast
2:58 AM 67.6 °F 67.1 °F 98% 29.86 in 8.0 mi South 8.1 mph - N/A   Overcast
3:58 AM 67.5 °F 66.7 °F 98% 29.85 in 7.0 mi South 11.5 mph - N/A   Overcast
4:07 AM 68.0 °F 66.2 °F 94% 29.84 in 7.0 mi South 12.7 mph - N/A   Overcast
4:25 AM 66.2 °F 66.2 °F 100% 29.84 in 6.0 mi South 11.5 mph - N/A   Overcast
4:51 AM 66.2 °F 66.2 °F 100% 29.85 in 7.0 mi SSW 12.7 mph - N/A   Overcast
4:58 AM 66.6 °F 66.2 °F 99% 29.87 in 7.0 mi South 8.1 mph - N/A   Overcast
5:02 AM 66.2 °F 66.2 °F 100% 29.85 in 7.0 mi South 10.4 mph - N/A   Overcast
5:32 AM 66.2 °F 66.2 °F 100% 29.85 in 4.0 mi South 12.7 mph - N/A   Overcast
5:53 AM 66.2 °F 66.2 °F 100% 29.86 in 4.0 mi South 10.4 mph - N/A   Overcast
5:58 AM 66.0 °F 65.7 °F 99% 29.87 in 4.0 mi South 12.7 mph - N/A   Overcast
6:42 AM 66.2 °F 66.2 °F 100% 29.87 in 6.0 mi South 12.7 mph - N/A   Overcast
6:53 AM 66.2 °F 66.2 °F 100% 29.87 in 6.0 mi South 12.7 mph - N/A   Overcast
6:58 AM 66.4 °F 66.0 °F 99% 29.89 in 2.0 mi South 12.7 mph - N/A   Overcast
7:33 AM 66.2 °F 66.2 °F 100% 29.87 in 3.0 mi South 8.1 mph - N/A   Overcast
7:58 AM 66.6 °F 66.0 °F 98% 29.89 in 3.0 mi South 10.4 mph - N/A   Overcast
8:18 AM 66.2 °F 66.2 °F 100% 29.88 in 3.0 mi South 10.4 mph - N/A Rain , Thunderstorm Light Rain
8:29 AM 66.2 °F 66.2 °F 100% 29.88 in 3.0 mi SSW 9.2 mph - N/A Rain , Thunderstorm Light Thunderstorms and Rain
8:58 AM 66.9 °F 66.4 °F 98% 29.88 in 3.0 mi South 11.5 mph - 0.01 in Thunderstorm Overcast
9:25 AM 68.0 °F 66.2 °F 94% 29.87 in 3.0 mi South 10.4 mph - N/A   Overcast
9:58 AM 68.7 °F 67.6 °F 96% 29.87 in 3.0 mi South 10.4 mph - N/A   Overcast
10:40 AM 69.8 °F 68.0 °F 94% 29.88 in 3.0 mi South 9.2 mph - N/A   Overcast
10:58 AM 72.1 °F 68.2 °F 87% 29.88 in 5.0 mi South 10.4 mph - N/A   Mostly Cloudy
11:24 AM 69.8 °F 68.0 °F 94% 29.88 in 6.0 mi South 11.5 mph - N/A Rain Light Rain
11:58 AM 70.7 °F 69.4 °F 96% 29.88 in 4.0 mi South 9.2 mph - 0.00 in Rain Light Rain
12:27 PM 71.6 °F 71.6 °F 100% 29.86 in 4.0 mi South 10.4 mph - N/A   Overcast
12:55 PM 71.1 °F 69.6 °F 95% 29.87 in 6.0 mi South 16.1 mph - 0.02 in   Overcast
1:58 PM 70.7 °F 68.9 °F 94% 29.86 in 2.0 mi South 16.1 mph - 0.00 in Rain Light Rain
2:58 PM 69.8 °F 68.0 °F 94% 29.86 in 2.0 mi South 8.1 mph - 0.01 in Rain Light Rain
3:26 PM 68.0 °F 68.0 °F 100% 29.84 in 1.8 mi SSW 3.5 mph - N/A Rain , Thunderstorm Light Rain
3:58 PM 68.0 °F 68.0 °F 100% 29.86 in 0.5 mi West 8.1 mph - N/A Rain , Thunderstorm Thunderstorms and Rain
4:12 PM 68.0 °F 68.0 °F 100% 29.83 in 1.0 mi Variable 1.2 mph - N/A Rain , Thunderstorm Light Thunderstorms and Rain
4:25 PM 68.0 °F 68.0 °F 100% 29.83 in 2.0 mi South 4.6 mph - N/A Rain , Thunderstorm Light Rain
4:38 PM 68.0 °F 68.0 °F 100% 29.82 in 2.0 mi South 5.8 mph - N/A Rain Light Rain
4:58 PM 68.0 °F 68.0 °F 100% 29.83 in 2.5 mi South 11.5 mph - N/A Rain Light Rain
5:05 PM 68.0 °F 68.0 °F 100% 29.83 in 2.0 mi South 10.4 mph - N/A Rain , Thunderstorm Light Rain
5:27 PM 68.0 °F 66.2 °F 94% 29.84 in 2.0 mi South 8.1 mph - N/A Rain Light Rain
5:43 PM 66.2 °F 66.2 °F 100% 29.84 in 2.0 mi South 11.5 mph - N/A Rain Light Rain
5:58 PM 66.7 °F 66.4 °F 99% 29.86 in 2.0 mi South 10.4 mph - 0.23 in Rain Rain
6:03 PM 66.2 °F 66.2 °F 100% 29.85 in 0.8 mi South 11.5 mph - N/A Rain Heavy Rain
6:25 PM 66.2 °F 66.2 °F 100% 29.85 in 2.0 mi South 9.2 mph - N/A Rain Rain
6:33 PM 66.2 °F 66.2 °F 100% 29.84 in 1.0 mi South 9.2 mph - N/A Rain Heavy Rain
6:45 PM 66.2 °F 66.2 °F 100% 29.84 in 3.0 mi South 9.2 mph - N/A Rain Light Rain
6:58 PM 66.4 °F 66.0 °F 99% 29.86 in 3.0 mi South 9.2 mph - 0.39 in Rain Light Rain
7:58 PM 66.7 °F 66.4 °F 99% 29.85 in 3.0 mi South 9.2 mph - 0.11 in Rain Light Rain
8:37 PM 66.2 °F 66.2 °F 100% 29.82 in 1.0 mi South 16.1 mph - N/A Rain Heavy Rain
8:58 PM 66.4 °F 66.0 °F 99% 29.83 in 1.5 mi South 11.5 mph - 0.47 in Rain Rain
9:24 PM 66.2 °F 66.2 °F 100% 29.81 in 3.0 mi South 15.0 mph - N/A Rain Light Rain
9:42 PM 66.2 °F 66.2 °F 100% 29.81 in 10.0 mi South 10.4 mph - N/A Rain Light Rain
9:43 PM 66.2 °F 66.2 °F 100% 29.81 in 10.0 mi South 10.4 mph - N/A Rain Light Rain
9:49 PM 66.2 °F 66.2 °F 100% 29.81 in 10.0 mi South 9.2 mph - N/A Rain Light Rain
9:50 PM 66.2 °F 66.2 °F 100% 29.81 in 10.0 mi South 10.4 mph - N/A Rain Light Rain
9:51 PM 66.2 °F 66.2 °F 100% 29.81 in 10.0 mi South 11.5 mph - N/A Rain Light Rain
9:58 PM 65.8 °F 65.5 °F 99% 29.83 in 10.0 mi South 9.2 mph - 0.25 in Rain Light Rain
10:00 PM 66.2 °F 66.2 °F 100% 29.80 in 10.0 mi South 9.2 mph - N/A Rain Light Rain
10:02 PM 66.2 °F 66.2 °F 100% 29.80 in 10.0 mi South 10.4 mph - N/A Rain Light Rain
10:06 PM 66.2 °F 66.2 °F 100% 29.80 in 10.0 mi South 10.4 mph 18.4 mph N/A Rain Light Rain
10:14 PM 66.2 °F 66.2 °F 100% 29.80 in 10.0 mi South 12.7 mph - N/A Rain Light Rain
10:45 PM 66.2 °F 66.2 °F 100% 29.79 in 10.0 mi South 16.1 mph - N/A   Overcast
10:48 PM 66.2 °F 66.2 °F 100% 29.79 in 10.0 mi South 12.7 mph - N/A   Overcast
10:58 PM 65.7 °F 65.3 °F 99% 29.81 in 10.0 mi South 15.0 mph - 0.01 in   Overcast
11:17 PM 66.2 °F 64.4 °F 94% 29.78 in 10.0 mi South 12.7 mph - N/A   Light Drizzle
11:26 PM 66.2 °F 64.4 °F 94% 29.78 in 10.0 mi South 12.7 mph - N/A   Overcast
11:46 PM 64.4 °F 64.4 °F 100% 29.77 in 10.0 mi South 13.8 mph 19.6 mph N/A   Light Drizzle
11:48 PM 64.4 °F 64.4 °F 100% 29.77 in 10.0 mi South 12.7 mph 19.6 mph N/A   Light Drizzle
11:58 PM 65.1 °F 64.8 °F 99% 29.79 in 10.0 mi South 12.7 mph - 0.00 in Rain Light Rain